STARLINK-34623, 65018

Orbit data source: Space-Track

STARLINK-34623, 65018 is a payload satellite owned by SpaceX/Seattle (US) in LEO that was launched on Wed, 30 Jul 2025 UTC via an FALCON 9 launch vehicle from the Air Force Eastern Test Range (AFETR). Payload-class satellites include a variety of spacecraft equipped with specific instruments for various scientific and technological missions. These include communications satellites like Starlink; space stations such as the ISS; scientific satellites like the Hubble; Earth observation satellites from companies like Planet Labs, Umbra, and HawkEye 360; GPS; miniature CubeSats for education and research; and military/defense satellites.

Loading next visibility...
Identifier
65018, 2025-161D
Orbit
LEO
Country
Flag of USUS
Related business
Manufacturer
SpaceX/Seattle
Mission
Operational spacecraft
Bus & Motor
STARLINK V2MO, Unknown motor
Mass
575 kg wet, ~530 kg dry
Launch date (UTC)
2025-07-30 (1 month ago)
Launch vehicle
FALCON 9
Launch site
Air Force Eastern Test Range (AFETR)
Object type
Payload
Rocket body
Debris
Shape & HBR
Unknown
Radar Cross Section
Large (>1 m²)

Expand to show TLE details & history
Last TLE update: 19 hours ago

TLE from 19 hours ago
0 STARLINK-34623
1 65018U 25161D   25241.25002315  .00008633  00000-0  22571-3 0  9997
2 65018  53.1593 110.7072 0001162  82.1412 122.7138 15.39600542  5929
Epoch: 2025-08-29T06:00Z
TLE epoch observation values (Epoch: 2025-08-29T06:00:02Z)
Latitude
-19.84756°
Longitude
-121.40172°
Altitude
453.228 km
Speed
7.64 km/s
True Right ascension
20h 25m 13s
True Declination
-19° 43' 59"
Sunlit
Object was in full shadow at epoch
Visualization orbit readout
Latitude
Unknown
Longitude
Unknown
Altitude
Unknown
Speed
Unknown
Apparent Right ascension
Unknown
Apparent Declination
Unknown
Sunlit
N/A
Visualization observer readout
Local Sidereal Time
16:56:20
Azimuth
Unknown
Elevation
Unknown
Doppler factor
Unknown
Orbital elements
Apogee altitude
448.34 km
Perigee altitude
446.754 km
Semi-major axis
6,825.684 km
Eccentricity
0.00012
Inclination
53.1593°
RAAN
110.7072°
Arg. of periapsis
82.1412°
True anomaly
122.725°
Mean anomaly
122.7138°
Eccentric anomaly
122.7194°
Mean motion
3.84879 °/min
Orbital period
93.54 mins
BSTAR
0.00022571
Loading maneuver chart data...
Computing Atmospheric mass density...
Loading historical data...
Loading historical data...
Loading historical data...
Loading historical data...
Loading historical data...
Loading historical data...
Loading historical data...

Documentation

Showing up to 5 results
|